Location: Unspecified
(41.5516°N, 88.1098°W)
Time: 19:13:20
(UTC-05:00)

Resurs 1-4 Rocket - Visible Passes

Search period start: 17 April 2014 00:00
Search period end: 27 April 2014 00:00
Orbit: 800 x 815 km, 98.3° (Epoch: 16 April)

Date Brightness Start Highest point End Pass type
(mag) Time Alt. Az. Time Alt. Az. Time Alt. Az.
17 Apr 5.1 03:48:29 10° ENE 03:49:21 10° E 03:50:14 10° E visible
17 Apr 2.1 05:24:37 10° NNE 05:29:55 90° ESE 05:35:11 10° SSW visible
18 Apr 2.9 05:00:19 10° NNE 05:05:29 54° E 05:10:38 10° S visible
19 Apr 3.8 04:36:16 10° NNE 04:40:59 32° E 04:45:40 10° SSE visible
20 Apr 4.5 04:12:37 10° NE 04:16:23 20° E 04:20:08 10° SE visible
21 Apr 5.0 03:50:07 10° ENE 03:51:41 11° E 03:53:16 10° ESE visible
21 Apr 2.1 05:26:55 10° NNE 05:32:12 85° WNW 05:37:28 10° SSW visible
22 Apr 2.8 05:02:35 10° NNE 05:07:47 58° E 05:12:58 10° S visible
23 Apr 3.7 04:38:30 10° NNE 04:43:17 34° E 04:48:03 10° SSE visible
24 Apr 4.5 04:14:47 10° NE 04:18:42 21° E 04:22:37 10° SE visible
25 Apr 4.9 03:51:59 10° ENE 03:54:01 12° E 03:56:03 10° ESE visible
26 Apr 2.7 05:04:51 10° NNE 05:10:05 62° E 05:15:18 10° S visible
